Time,TemperatureF,DewpointF,PressureIn,WindDirection,WindDirectionDegrees,WindSpeedMPH,WindSpeedGustMPH,Humidity,HourlyPrecipIn,Conditions,Clouds,dailyrainin,SolarRadiationWatts/m^2,SoftwareType,DateUTC
2014-02-21 00:06:00,12.9,5.6,30.23,SSW,210,3.0,5.0,72,0.00,,,0.00,0,Wunderground v.1.15,2014-02-21 07:06:00,
2014-02-21 00:13:00,12.6,5.6,30.23,SSW,210,4.0,4.0,73,0.00,,,0.00,0,Wunderground v.1.15,2014-02-21 07:13:00,
2014-02-21 00:19:00,12.4,5.4,30.23,SSW,210,5.0,5.0,73,0.00,,,0.00,0,Wunderground v.1.15,2014-02-21 07:19:00,
2014-02-21 00:25:00,12.1,5.1,30.23,SW,221,5.0,5.0,73,0.00,,,0.00,0,Wunderground v.1.15,2014-02-21 07:25:00,
2014-02-21 00:31:00,11.9,4.9,30.23,SW,236,5.0,5.0,73,0.00,,,0.00,0,Wunderground v.1.15,2014-02-21 07:31:00,
2014-02-21 00:37:00,11.9,4.9,30.23,WSW,243,5.0,5.0,73,0.00,,,0.00,0,Wunderground v.1.15,2014-02-21 07:37:00,
2014-02-21 00:43:00,11.6,4.3,30.23,WSW,245,5.0,5.0,72,0.00,,,0.00,0,Wunderground v.1.15,2014-02-21 07:43:00,
2014-02-21 00:49:00,11.6,4.6,30.22,WSW,245,2.0,5.0,73,0.00,,,0.00,0,Wunderground v.1.15,2014-02-21 07:49:00,
2014-02-21 00:56:00,11.4,4.4,30.22,WSW,246,2.0,4.0,73,0.00,,,0.00,0,Wunderground v.1.15,2014-02-21 07:56:00,
2014-02-21 01:01:00,11.4,4.7,30.22,WSW,245,1.0,2.0,74,0.00,,,0.00,0,Wunderground v.1.15,2014-02-21 08:01:00,
2014-02-21 01:06:00,11.2,4.5,30.22,WSW,245,3.0,3.0,74,0.00,,,0.00,0,Wunderground v.1.15,2014-02-21 08:06:00,
2014-02-21 01:11:00,11.2,4.5,30.22,WSW,246,4.0,4.0,74,0.00,,,0.00,0,Wunderground v.1.15,2014-02-21 08:11:00,
2014-02-21 01:17:00,11.2,4.5,30.22,West,261,5.0,5.0,74,0.00,,,0.00,0,Wunderground v.1.15,2014-02-21 08:17:00,
2014-02-21 01:23:00,11.1,4.1,30.22,West,265,6.0,6.0,73,0.00,,,0.00,0,Wunderground v.1.15,2014-02-21 08:23:00,
2014-02-21 01:29:00,11.1,3.8,30.22,West,265,4.0,6.0,72,0.00,,,0.00,0,Wunderground v.1.15,2014-02-21 08:29:00,
2014-02-21 01:36:00,10.9,3.3,30.22,West,267,5.0,5.0,71,0.00,,,0.00,0,Wunderground v.1.15,2014-02-21 08:36:00,
2014-02-21 01:41:00,10.9,3.3,30.22,West,267,5.0,5.0,71,0.00,,,0.00,0,Wunderground v.1.15,2014-02-21 08:41:00,
2014-02-21 01:46:00,10.9,3.0,30.22,West,267,5.0,5.0,70,0.00,,,0.00,0,Wunderground v.1.15,2014-02-21 08:46:00,
2014-02-21 01:53:00,10.9,3.0,30.22,West,267,5.0,5.0,70,0.00,,,0.00,0,Wunderground v.1.15,2014-02-21 08:53:00,
2014-02-21 01:59:00,10.9,3.0,30.22,West,269,3.0,6.0,70,0.00,,,0.00,0,Wunderground v.1.15,2014-02-21 08:59:00,
2014-02-21 02:04:00,10.9,3.0,30.22,West,269,4.0,4.0,70,0.00,,,0.00,0,Wunderground v.1.15,2014-02-21 09:04:00,
2014-02-21 02:09:00,10.7,2.8,30.22,West,268,4.0,6.0,70,0.00,,,0.00,0,Wunderground v.1.15,2014-02-21 09:09:00,
2014-02-21 02:14:00,10.7,2.8,30.23,West,268,5.0,6.0,70,0.00,,,0.00,0,Wunderground v.1.15,2014-02-21 09:14:00,
2014-02-21 02:19:00,10.5,2.6,30.23,West,272,5.0,6.0,70,0.00,,,0.00,0,Wunderground v.1.15,2014-02-21 09:19:00,
2014-02-21 02:24:00,10.5,2.6,30.23,West,267,5.0,7.0,70,0.00,,,0.00,0,Wunderground v.1.15,2014-02-21 09:24:00,
2014-02-21 02:29:00,10.4,2.2,30.22,West,263,5.0,7.0,69,0.00,,,0.00,0,Wunderground v.1.15,2014-02-21 09:29:00,
2014-02-21 02:34:00,10.4,1.9,30.22,West,270,6.0,7.0,68,0.00,,,0.00,0,Wunderground v.1.15,2014-02-21 09:34:00,
2014-02-21 02:39:00,10.5,1.7,30.22,West,274,5.0,7.0,67,0.00,,,0.00,0,Wunderground v.1.15,2014-02-21 09:39:00,
2014-02-21 02:44:00,10.5,1.7,30.21,West,269,5.0,6.0,67,0.00,,,0.00,0,Wunderground v.1.15,2014-02-21 09:44:00,
2014-02-21 02:49:00,10.4,1.6,30.21,West,266,5.0,6.0,67,0.00,,,0.00,0,Wunderground v.1.15,2014-02-21 09:49:00,
2014-02-21 02:54:00,10.4,1.6,30.21,West,273,5.0,6.0,67,0.00,,,0.00,0,Wunderground v.1.15,2014-02-21 09:54:00,
2014-02-21 02:59:00,10.2,1.4,30.21,West,268,5.0,7.0,67,0.00,,,0.00,0,Wunderground v.1.15,2014-02-21 09:59:00,
2014-02-21 03:04:00,10.2,1.4,30.21,West,267,6.0,6.0,67,0.00,,,0.00,0,Wunderground v.1.15,2014-02-21 10:04:00,
2014-02-21 03:09:00,10.0,1.5,30.21,West,267,5.0,7.0,68,0.00,,,0.00,0,Wunderground v.1.15,2014-02-21 10:09:00,
2014-02-21 03:14:00,10.0,1.5,30.22,West,269,5.0,7.0,68,0.00,,,0.00,0,Wunderground v.1.15,2014-02-21 10:14:00,
2014-02-21 03:19:00,10.0,1.2,30.22,West,271,4.0,7.0,67,0.00,,,0.00,0,Wunderground v.1.15,2014-02-21 10:19:00,
2014-02-21 03:24:00,9.9,1.1,30.22,West,273,4.0,5.0,67,0.00,,,0.00,0,Wunderground v.1.15,2014-02-21 10:24:00,
2014-02-21 03:29:00,9.9,1.1,30.22,WNW,287,5.0,6.0,67,0.00,,,0.00,0,Wunderground v.1.15,2014-02-21 10:29:00,
2014-02-21 03:34:00,9.7,0.9,30.22,West,280,5.0,7.0,67,0.00,,,0.00,0,Wunderground v.1.15,2014-02-21 10:34:00,
2014-02-21 03:39:00,9.5,0.7,30.22,West,275,5.0,7.0,67,0.00,,,0.00,0,Wunderground v.1.15,2014-02-21 10:39:00,
2014-02-21 03:44:00,9.3,0.9,30.23,West,276,6.0,7.0,68,0.00,,,0.00,0,Wunderground v.1.15,2014-02-21 10:44:00,
2014-02-21 03:50:00,9.2,1.1,30.23,West,272,6.0,6.0,69,0.00,,,0.00,0,Wunderground v.1.15,2014-02-21 10:50:00,
2014-02-21 03:55:00,9.0,0.9,30.23,West,271,4.0,7.0,69,0.00,,,0.00,0,Wunderground v.1.15,2014-02-21 10:55:00,
2014-02-21 04:00:00,8.8,1.0,30.23,West,272,4.0,4.0,70,0.00,,,0.00,0,Wunderground v.1.15,2014-02-21 11:00:00,
2014-02-21 04:05:00,8.8,1.3,30.23,West,271,2.0,4.0,71,0.00,,,0.00,0,Wunderground v.1.15,2014-02-21 11:05:00,
2014-02-21 04:10:00,8.8,1.3,30.23,West,271,3.0,3.0,71,0.00,,,0.00,0,Wunderground v.1.15,2014-02-21 11:10:00,
2014-02-21 04:16:00,8.6,1.4,30.23,West,271,3.0,4.0,72,0.00,,,0.00,0,Wunderground v.1.15,2014-02-21 11:16:00,
2014-02-21 04:21:00,8.6,1.4,30.23,West,269,2.0,4.0,72,0.00,,,0.00,0,Wunderground v.1.15,2014-02-21 11:21:00,
2014-02-21 04:26:00,8.4,1.2,30.23,West,269,2.0,4.0,72,0.00,,,0.00,0,Wunderground v.1.15,2014-02-21 11:26:00,
2014-02-21 04:31:00,8.4,1.2,30.24,West,269,3.0,3.0,72,0.00,,,0.00,0,Wunderground v.1.15,2014-02-21 11:31:00,
2014-02-21 04:36:00,8.3,1.1,30.24,West,269,3.0,4.0,72,0.00,,,0.00,0,Wunderground v.1.15,2014-02-21 11:36:00,
2014-02-21 04:41:00,8.3,1.1,30.24,West,275,3.0,4.0,72,0.00,,,0.00,0,Wunderground v.1.15,2014-02-21 11:41:00,
2014-02-21 04:46:00,8.1,0.9,30.25,West,275,2.0,4.0,72,0.00,,,0.00,0,Wunderground v.1.15,2014-02-21 11:46:00,
2014-02-21 04:51:00,7.9,0.7,30.25,West,275,1.0,3.0,72,0.00,,,0.00,0,Wunderground v.1.15,2014-02-21 11:51:00,
2014-02-21 04:56:00,7.9,0.7,30.25,West,275,2.0,3.0,72,0.00,,,0.00,0,Wunderground v.1.15,2014-02-21 11:56:00,
2014-02-21 05:01:00,7.9,0.7,30.24,West,275,0.0,2.0,72,0.00,,,0.00,0,Wunderground v.1.15,2014-02-21 12:01:00,
2014-02-21 05:06:00,7.7,0.5,30.24,West,275,0.0,2.0,72,0.00,,,0.00,0,Wunderground v.1.15,2014-02-21 12:06:00,
2014-02-21 05:11:00,7.7,0.8,30.24,West,275,0.0,0.0,73,0.00,,,0.00,0,Wunderground v.1.15,2014-02-21 12:11:00,
2014-02-21 05:16:00,7.7,1.1,30.25,West,275,0.0,0.0,74,0.00,,,0.00,0,Wunderground v.1.15,2014-02-21 12:16:00,
2014-02-21 05:21:00,7.7,0.8,30.25,West,275,0.0,0.0,73,0.00,,,0.00,0,Wunderground v.1.15,2014-02-21 12:21:00,
2014-02-21 05:26:00,7.7,0.8,30.25,West,275,0.0,0.0,73,0.00,,,0.00,0,Wunderground v.1.15,2014-02-21 12:26:00,
2014-02-21 05:32:00,7.7,0.8,30.26,West,275,0.0,0.0,73,0.00,,,0.00,0,Wunderground v.1.15,2014-02-21 12:32:00,
2014-02-21 05:36:00,7.7,0.8,30.26,West,275,0.0,0.0,73,0.00,,,0.00,0,Wunderground v.1.15,2014-02-21 12:36:00,
2014-02-21 05:41:00,7.7,0.8,30.26,West,275,0.0,0.0,73,0.00,,,0.00,0,Wunderground v.1.15,2014-02-21 12:41:00,
2014-02-21 05:46:00,7.7,0.8,30.26,West,275,0.0,0.0,73,0.00,,,0.00,0,Wunderground v.1.15,2014-02-21 12:46:00,
2014-02-21 05:51:00,7.6,0.5,30.26,WSW,240,0.0,1.0,72,0.00,,,0.00,0,Wunderground v.1.15,2014-02-21 12:51:00,
2014-02-21 05:54:00,7.6,0.5,30.26,WSW,240,0.0,1.0,72,0.00,,,0.00,0,Wunderground v.1.15,2014-02-21 12:54:00,
2014-02-21 05:59:00,7.6,0.7,30.27,SW,225,4.0,4.0,73,0.00,,,0.00,0,Wunderground v.1.15,2014-02-21 12:59:00,
2014-02-21 06:04:00,7.6,1.0,30.27,SSW,213,3.0,4.0,74,0.00,,,0.00,0,Wunderground v.1.15,2014-02-21 13:04:00,
2014-02-21 06:09:00,7.6,1.3,30.27,SSW,212,2.0,4.0,75,0.00,,,0.00,0,Wunderground v.1.15,2014-02-21 13:09:00,
2014-02-21 06:14:00,7.7,1.4,30.27,SSE,157,5.0,6.0,75,0.00,,,0.00,0,Wunderground v.1.15,2014-02-21 13:14:00,
2014-02-21 06:19:00,7.9,1.6,30.27,SSE,155,7.0,7.0,75,0.00,,,0.00,0,Wunderground v.1.15,2014-02-21 13:19:00,
2014-02-21 06:24:00,8.1,1.8,30.27,South,171,4.0,7.0,75,0.00,,,0.00,0,Wunderground v.1.15,2014-02-21 13:24:00,
2014-02-21 06:29:00,8.3,2.3,30.27,South,178,4.0,7.0,76,0.00,,,0.00,0,Wunderground v.1.15,2014-02-21 13:29:00,
2014-02-21 06:34:00,8.3,2.3,30.27,South,178,2.0,5.0,76,0.00,,,0.00,0,Wunderground v.1.15,2014-02-21 13:34:00,
2014-02-21 06:39:00,8.4,2.4,30.27,South,178,0.0,5.0,76,0.00,,,0.00,0,Wunderground v.1.15,2014-02-21 13:39:00,
2014-02-21 06:44:00,8.6,2.6,30.28,South,178,0.0,2.0,76,0.00,,,0.00,5,Wunderground v.1.15,2014-02-21 13:44:00,
2014-02-21 06:49:00,8.6,2.6,30.28,South,178,0.0,2.0,76,0.00,,,0.00,7,Wunderground v.1.15,2014-02-21 13:49:00,
2014-02-21 06:54:00,8.6,2.6,30.28,South,178,0.0,0.0,76,0.00,,,0.00,14,Wunderground v.1.15,2014-02-21 13:54:00,
2014-02-21 06:59:00,8.6,2.3,30.28,South,178,0.0,0.0,75,0.00,,,0.00,25,Wunderground v.1.15,2014-02-21 13:59:00,
2014-02-21 07:04:00,8.4,2.1,30.28,South,178,0.0,0.0,75,0.00,,,0.00,37,Wunderground v.1.15,2014-02-21 14:04:00,
2014-02-21 07:09:00,8.4,2.4,30.28,South,178,0.0,0.0,76,0.00,,,0.00,58,Wunderground v.1.15,2014-02-21 14:09:00,
2014-02-21 07:14:00,8.6,2.9,30.28,South,178,0.0,0.0,77,0.00,,,0.00,95,Wunderground v.1.15,2014-02-21 14:14:00,
2014-02-21 07:19:00,8.8,3.3,30.28,South,178,0.0,0.0,78,0.00,,,0.00,121,Wunderground v.1.15,2014-02-21 14:19:00,
2014-02-21 07:24:00,9.3,4.1,30.28,South,184,3.0,6.0,79,0.00,,,0.00,141,Wunderground v.1.15,2014-02-21 14:24:00,
2014-02-21 07:29:00,10.0,4.8,30.28,South,184,0.0,6.0,79,0.00,,,0.00,174,Wunderground v.1.15,2014-02-21 14:29:00,
2014-02-21 07:34:00,10.7,5.7,30.28,South,184,3.0,3.0,80,0.00,,,0.00,185,Wunderground v.1.15,2014-02-21 14:34:00,
2014-02-21 07:39:00,11.6,6.6,30.28,South,184,0.0,4.0,80,0.00,,,0.00,167,Wunderground v.1.15,2014-02-21 14:39:00,
2014-02-21 07:45:00,12.6,7.3,30.29,South,184,0.0,0.0,79,0.00,,,0.00,142,Wunderground v.1.15,2014-02-21 14:45:00,
2014-02-21 07:50:00,13.3,7.7,30.29,South,184,3.0,3.0,78,0.00,,,0.00,160,Wunderground v.1.15,2014-02-21 14:50:00,
2014-02-21 07:57:00,14.1,7.6,30.29,South,184,2.0,3.0,75,0.00,,,0.00,174,Wunderground v.1.15,2014-02-21 14:57:00,
2014-02-21 08:05:00,14.8,7.7,30.30,South,184,0.0,3.0,73,0.00,,,0.00,171,Wunderground v.1.15,2014-02-21 15:05:00,
2014-02-21 08:10:00,15.2,7.5,30.30,South,184,0.0,1.0,71,0.00,,,0.00,195,Wunderground v.1.15,2014-02-21 15:10:00,
2014-02-21 08:16:00,15.6,7.2,30.30,South,184,0.0,1.0,69,0.00,,,0.00,163,Wunderground v.1.15,2014-02-21 15:16:00,
2014-02-21 08:21:00,16.1,6.7,30.30,South,184,0.0,0.0,66,0.00,,,0.00,183,Wunderground v.1.15,2014-02-21 15:21:00,
2014-02-21 08:26:00,16.7,6.6,30.30,South,184,0.0,0.0,64,0.00,,,0.00,195,Wunderground v.1.15,2014-02-21 15:26:00,
2014-02-21 08:31:00,17.2,6.8,30.30,South,184,0.0,0.0,63,0.00,,,0.00,248,Wunderground v.1.15,2014-02-21 15:31:00,
2014-02-21 08:36:00,17.7,6.9,30.30,South,184,0.0,0.0,62,0.00,,,0.00,292,Wunderground v.1.15,2014-02-21 15:36:00,
2014-02-21 08:41:00,18.1,6.9,30.30,South,184,0.0,0.0,61,0.00,,,0.00,339,Wunderground v.1.15,2014-02-21 15:41:00,
2014-02-21 08:48:00,19.1,8.2,30.30,South,184,0.0,0.0,62,0.00,,,0.00,352,Wunderground v.1.15,2014-02-21 15:48:00,
2014-02-21 08:54:00,19.7,7.7,30.30,South,184,0.0,0.0,59,0.00,,,0.00,387,Wunderground v.1.15,2014-02-21 15:54:00,
2014-02-21 08:59:00,20.5,8.0,30.30,South,184,0.0,0.0,58,0.00,,,0.00,381,Wunderground v.1.15,2014-02-21 15:59:00,
2014-02-21 09:05:00,21.1,7.8,30.30,South,184,0.0,3.0,56,0.00,,,0.00,387,Wunderground v.1.15,2014-02-21 16:05:00,
2014-02-21 09:10:00,21.9,7.4,30.30,South,184,1.0,3.0,53,0.00,,,0.00,415,Wunderground v.1.15,2014-02-21 16:10:00,
2014-02-21 09:15:00,22.9,7.4,30.30,South,184,6.0,6.0,51,0.00,,,0.00,410,Wunderground v.1.15,2014-02-21 16:15:00,
2014-02-21 09:20:00,23.6,7.2,30.30,South,184,5.0,5.0,49,0.00,,,0.00,450,Wunderground v.1.15,2014-02-21 16:20:00,
2014-02-21 09:26:00,24.5,8.0,30.30,South,184,2.0,5.0,49,0.00,,,0.00,478,Wunderground v.1.15,2014-02-21 16:26:00,
2014-02-21 09:31:00,25.1,8.1,30.30,South,184,5.0,6.0,48,0.00,,,0.00,494,Wunderground v.1.15,2014-02-21 16:31:00,
2014-02-21 09:36:00,25.7,8.7,30.30,South,184,5.0,6.0,48,0.00,,,0.00,506,Wunderground v.1.15,2014-02-21 16:36:00,
2014-02-21 09:41:00,26.3,8.8,30.30,South,184,5.0,7.0,47,0.00,,,0.00,517,Wunderground v.1.15,2014-02-21 16:41:00,
2014-02-21 09:46:00,26.7,8.7,30.30,South,184,4.0,7.0,46,0.00,,,0.00,531,Wunderground v.1.15,2014-02-21 16:46:00,
2014-02-21 09:51:00,27.0,9.4,30.30,South,184,6.0,9.0,47,0.00,,,0.00,541,Wunderground v.1.15,2014-02-21 16:51:00,
2014-02-21 09:56:00,27.3,9.2,30.30,South,184,4.0,9.0,46,0.00,,,0.00,559,Wunderground v.1.15,2014-02-21 16:56:00,
2014-02-21 10:01:00,27.6,10.0,30.30,South,184,0.0,5.0,47,0.00,,,0.00,554,Wunderground v.1.15,2014-02-21 17:01:00,
2014-02-21 10:06:00,27.8,9.7,30.30,South,184,2.0,5.0,46,0.00,,,0.00,570,Wunderground v.1.15,2014-02-21 17:06:00,
2014-02-21 10:11:00,27.9,9.8,30.30,South,184,2.0,5.0,46,0.00,,,0.00,584,Wunderground v.1.15,2014-02-21 17:11:00,
2014-02-21 10:16:00,28.2,9.0,30.30,South,184,0.0,5.0,44,0.00,,,0.00,596,Wunderground v.1.15,2014-02-21 17:16:00,
2014-02-21 10:21:00,28.4,9.7,30.30,South,184,0.0,1.0,45,0.00,,,0.00,612,Wunderground v.1.15,2014-02-21 17:21:00,
2014-02-21 10:26:00,29.0,10.3,30.30,South,184,5.0,7.0,45,0.00,,,0.00,624,Wunderground v.1.15,2014-02-21 17:26:00,
2014-02-21 10:31:00,29.5,10.2,30.29,South,184,6.0,8.0,44,0.00,,,0.00,631,Wunderground v.1.15,2014-02-21 17:31:00,
2014-02-21 10:36:00,30.1,10.3,30.29,South,184,7.0,9.0,43,0.00,,,0.00,640,Wunderground v.1.15,2014-02-21 17:36:00,
2014-02-21 10:41:00,30.6,10.2,30.29,South,184,6.0,9.0,42,0.00,,,0.00,652,Wunderground v.1.15,2014-02-21 17:41:00,
2014-02-21 10:46:00,31.2,12.3,30.28,South,184,6.0,9.0,45,0.00,,,0.00,640,Wunderground v.1.15,2014-02-21 17:46:00,
2014-02-21 10:51:00,31.6,11.6,30.28,South,184,4.0,6.0,43,0.00,,,0.00,670,Wunderground v.1.15,2014-02-21 17:51:00,
2014-02-21 10:56:00,32.1,11.6,30.28,South,184,2.0,6.0,42,0.00,,,0.00,679,Wunderground v.1.15,2014-02-21 17:56:00,
2014-02-21 11:01:00,32.5,11.4,30.28,South,184,3.0,6.0,41,0.00,,,0.00,687,Wunderground v.1.15,2014-02-21 18:01:00,
2014-02-21 11:07:00,32.8,11.6,30.28,South,184,5.0,8.0,41,0.00,,,0.00,693,Wunderground v.1.15,2014-02-21 18:07:00,
2014-02-21 11:13:00,33.2,12.6,30.28,South,184,8.0,8.0,42,0.00,,,0.00,707,Wunderground v.1.15,2014-02-21 18:13:00,
2014-02-21 11:18:00,33.4,11.6,30.27,South,184,6.0,10.0,40,0.00,,,0.00,710,Wunderground v.1.15,2014-02-21 18:18:00,
2014-02-21 11:23:00,33.4,12.2,30.27,South,184,4.0,8.0,41,0.00,,,0.00,715,Wunderground v.1.15,2014-02-21 18:23:00,
2014-02-21 11:28:00,33.7,13.5,30.27,South,184,4.0,8.0,43,0.00,,,0.00,717,Wunderground v.1.15,2014-02-21 18:28:00,
2014-02-21 11:33:00,33.8,14.2,30.26,South,184,4.0,7.0,44,0.00,,,0.00,724,Wunderground v.1.15,2014-02-21 18:33:00,
2014-02-21 11:38:00,34.1,14.9,30.26,South,184,3.0,7.0,45,0.00,,,0.00,728,Wunderground v.1.15,2014-02-21 18:38:00,
2014-02-21 11:43:00,34.6,14.9,30.26,South,184,7.0,8.0,44,0.00,,,0.00,733,Wunderground v.1.15,2014-02-21 18:43:00,
2014-02-21 11:48:00,34.9,14.6,30.26,South,184,5.0,8.0,43,0.00,,,0.00,735,Wunderground v.1.15,2014-02-21 18:48:00,
2014-02-21 11:53:00,35.2,14.4,30.26,South,184,3.0,6.0,42,0.00,,,0.00,740,Wunderground v.1.15,2014-02-21 18:53:00,
2014-02-21 11:58:00,35.6,14.7,30.26,South,184,0.0,7.0,42,0.00,,,0.00,742,Wunderground v.1.15,2014-02-21 18:58:00,
2014-02-21 12:03:00,36.0,15.6,30.25,South,184,3.0,6.0,43,0.00,,,0.00,742,Wunderground v.1.15,2014-02-21 19:03:00,
2014-02-21 12:08:00,36.6,15.6,30.25,South,184,3.0,8.0,42,0.00,,,0.00,747,Wunderground v.1.15,2014-02-21 19:08:00,
2014-02-21 12:14:00,36.9,13.6,30.25,South,184,4.0,5.0,38,0.00,,,0.00,749,Wunderground v.1.15,2014-02-21 19:14:00,
2014-02-21 12:19:00,37.0,14.9,30.24,South,184,4.0,8.0,40,0.00,,,0.00,751,Wunderground v.1.15,2014-02-21 19:19:00,
2014-02-21 12:24:00,37.2,15.6,30.24,South,184,1.0,9.0,41,0.00,,,0.00,751,Wunderground v.1.15,2014-02-21 19:24:00,
2014-02-21 12:29:00,36.5,14.4,30.24,South,184,0.0,9.0,40,0.00,,,0.00,752,Wunderground v.1.15,2014-02-21 19:29:00,
2014-02-21 12:34:00,36.0,14.0,30.23,South,184,0.0,4.0,40,0.00,,,0.00,751,Wunderground v.1.15,2014-02-21 19:34:00,
2014-02-21 12:39:00,35.5,15.7,30.23,South,184,2.0,5.0,44,0.00,,,0.00,749,Wunderground v.1.15,2014-02-21 19:39:00,
2014-02-21 12:44:00,35.9,17.1,30.20,South,184,2.0,6.0,46,0.00,,,0.00,749,Wunderground v.1.15,2014-02-21 19:44:00,
2014-02-21 12:49:00,36.2,15.3,30.20,South,184,4.0,6.0,42,0.00,,,0.00,747,Wunderground v.1.15,2014-02-21 19:49:00,
2014-02-21 12:54:00,36.8,14.7,30.20,South,184,5.0,6.0,40,0.00,,,0.00,747,Wunderground v.1.15,2014-02-21 19:54:00,
2014-02-21 12:59:00,37.3,15.7,30.20,South,184,3.0,6.0,41,0.00,,,0.00,744,Wunderground v.1.15,2014-02-21 19:59:00,
2014-02-21 13:04:00,37.3,14.0,30.20,South,184,2.0,5.0,38,0.00,,,0.00,738,Wunderground v.1.15,2014-02-21 20:04:00,
2014-02-21 13:09:00,36.6,13.9,30.20,South,184,0.0,5.0,39,0.00,,,0.00,735,Wunderground v.1.15,2014-02-21 20:09:00,
2014-02-21 13:15:00,36.6,15.1,30.18,South,184,1.0,5.0,41,0.00,,,0.00,733,Wunderground v.1.15,2014-02-21 20:15:00,
2014-02-21 13:20:00,36.2,14.7,30.18,South,184,3.0,4.0,41,0.00,,,0.00,729,Wunderground v.1.15,2014-02-21 20:20:00,
2014-02-21 13:26:00,35.3,16.0,30.18,South,184,5.0,5.0,45,0.00,,,0.00,721,Wunderground v.1.15,2014-02-21 20:26:00,
2014-02-21 13:31:00,34.7,16.0,30.18,South,184,4.0,5.0,46,0.00,,,0.00,715,Wunderground v.1.15,2014-02-21 20:31:00,
2014-02-21 13:36:00,35.0,15.8,30.18,South,184,1.0,5.0,45,0.00,,,0.00,707,Wunderground v.1.15,2014-02-21 20:36:00,
2014-02-21 13:41:00,35.0,15.8,30.18,South,184,4.0,4.0,45,0.00,,,0.00,703,Wunderground v.1.15,2014-02-21 20:41:00,
2014-02-21 13:46:00,35.2,16.0,30.17,South,184,1.0,6.0,45,0.00,,,0.00,696,Wunderground v.1.15,2014-02-21 20:46:00,
2014-02-21 13:51:00,35.5,16.2,30.17,South,184,4.0,5.0,45,0.00,,,0.00,693,Wunderground v.1.15,2014-02-21 20:51:00,
2014-02-21 13:56:00,35.5,16.2,30.17,South,184,3.0,6.0,45,0.00,,,0.00,686,Wunderground v.1.15,2014-02-21 20:56:00,
2014-02-21 14:01:00,35.9,17.1,30.16,South,184,3.0,4.0,46,0.00,,,0.00,677,Wunderground v.1.15,2014-02-21 21:01:00,
2014-02-21 14:07:00,35.5,16.7,30.16,South,184,1.0,4.0,46,0.00,,,0.00,664,Wunderground v.1.15,2014-02-21 21:07:00,
2014-02-21 14:12:00,35.2,17.0,30.16,South,184,2.0,4.0,47,0.00,,,0.00,656,Wunderground v.1.15,2014-02-21 21:12:00,
2014-02-21 14:19:00,34.9,16.2,30.15,South,184,1.0,4.0,46,0.00,,,0.00,642,Wunderground v.1.15,2014-02-21 21:19:00,
2014-02-21 14:28:00,34.9,14.6,30.15,South,184,1.0,4.0,43,0.00,,,0.00,624,Wunderground v.1.15,2014-02-21 21:28:00,
2014-02-21 14:37:00,35.3,16.6,30.14,South,184,0.0,3.0,46,0.00,,,0.00,606,Wunderground v.1.15,2014-02-21 21:37:00,
2014-02-21 14:47:00,36.3,16.4,30.13,South,184,4.0,5.0,44,0.00,,,0.00,585,Wunderground v.1.15,2014-02-21 21:47:00,
2014-02-21 14:52:00,36.3,15.4,30.13,South,184,1.0,2.0,42,0.00,,,0.00,573,Wunderground v.1.15,2014-02-21 21:52:00,
2014-02-21 14:57:00,36.2,15.3,30.13,South,184,0.0,2.0,42,0.00,,,0.00,561,Wunderground v.1.15,2014-02-21 21:57:00,
2014-02-21 15:02:00,36.2,15.3,30.12,South,184,2.0,4.0,42,0.00,,,0.00,550,Wunderground v.1.15,2014-02-21 22:02:00,
2014-02-21 15:07:00,36.2,15.3,30.12,South,184,0.0,4.0,42,0.00,,,0.00,534,Wunderground v.1.15,2014-02-21 22:07:00,
2014-02-21 15:13:00,36.2,14.7,30.12,South,184,0.0,1.0,41,0.00,,,0.00,517,Wunderground v.1.15,2014-02-21 22:13:00,
2014-02-21 15:18:00,36.3,14.8,30.12,South,184,1.0,2.0,41,0.00,,,0.00,504,Wunderground v.1.15,2014-02-21 22:18:00,
2014-02-21 15:24:00,36.3,17.0,30.12,South,184,2.0,4.0,45,0.00,,,0.00,489,Wunderground v.1.15,2014-02-21 22:24:00,
2014-02-21 15:29:00,36.3,15.9,30.12,South,184,0.0,4.0,43,0.00,,,0.00,476,Wunderground v.1.15,2014-02-21 22:29:00,
2014-02-21 15:34:00,36.3,15.4,30.12,South,184,2.0,2.0,42,0.00,,,0.00,462,Wunderground v.1.15,2014-02-21 22:34:00,
2014-02-21 15:39:00,36.3,15.9,30.12,South,184,1.0,3.0,43,0.00,,,0.00,446,Wunderground v.1.15,2014-02-21 22:39:00,
2014-02-21 15:44:00,36.5,15.6,30.12,South,184,1.0,2.0,42,0.00,,,0.00,432,Wunderground v.1.15,2014-02-21 22:44:00,
2014-02-21 15:49:00,36.5,16.6,30.12,South,184,0.0,2.0,44,0.00,,,0.00,418,Wunderground v.1.15,2014-02-21 22:49:00,
2014-02-21 15:54:00,36.5,19.6,30.12,South,184,0.0,4.0,50,0.00,,,0.00,403,Wunderground v.1.15,2014-02-21 22:54:00,
2014-02-21 15:59:00,36.3,19.4,30.12,South,184,2.0,4.0,50,0.00,,,0.00,387,Wunderground v.1.15,2014-02-21 22:59:00,
2014-02-21 16:04:00,36.2,20.2,30.11,South,184,4.0,4.0,52,0.00,,,0.00,371,Wunderground v.1.15,2014-02-21 23:04:00,
2014-02-21 16:09:00,36.0,19.1,30.11,South,184,1.0,4.0,50,0.00,,,0.00,353,Wunderground v.1.15,2014-02-21 23:09:00,
2014-02-21 16:14:00,36.0,20.1,30.11,South,184,4.0,5.0,52,0.00,,,0.00,338,Wunderground v.1.15,2014-02-21 23:14:00,
2014-02-21 16:19:00,35.9,20.4,30.11,South,184,3.0,6.0,53,0.00,,,0.00,322,Wunderground v.1.15,2014-02-21 23:19:00,
2014-02-21 16:24:00,35.8,21.2,30.11,South,184,2.0,4.0,55,0.00,,,0.00,309,Wunderground v.1.15,2014-02-21 23:24:00,
2014-02-21 16:29:00,35.8,21.2,30.11,South,184,2.0,5.0,55,0.00,,,0.00,292,Wunderground v.1.15,2014-02-21 23:29:00,
2014-02-21 16:34:00,35.6,21.0,30.11,South,184,5.0,6.0,55,0.00,,,0.00,274,Wunderground v.1.15,2014-02-21 23:34:00,
2014-02-21 16:39:00,35.5,21.3,30.11,South,184,5.0,6.0,56,0.00,,,0.00,258,Wunderground v.1.15,2014-02-21 23:39:00,
2014-02-21 16:44:00,35.3,21.6,30.11,South,184,2.0,6.0,57,0.00,,,0.00,241,Wunderground v.1.15,2014-02-21 23:44:00,
2014-02-21 16:49:00,35.2,22.3,30.10,South,184,0.0,6.0,59,0.00,,,0.00,223,Wunderground v.1.15,2014-02-21 23:49:00,
2014-02-21 16:54:00,35.0,22.9,30.10,South,184,2.0,3.0,61,0.00,,,0.00,207,Wunderground v.1.15,2014-02-21 23:54:00,
2014-02-21 16:59:00,34.9,22.0,30.10,South,184,0.0,4.0,59,0.00,,,0.00,146,Wunderground v.1.15,2014-02-21 23:59:00,
2014-02-21 17:04:00,34.9,22.0,30.10,South,184,3.0,3.0,59,0.00,,,0.00,174,Wunderground v.1.15,2014-02-22 00:04:00,
2014-02-21 17:09:00,34.7,22.2,30.10,South,184,1.0,4.0,60,0.00,,,0.00,156,Wunderground v.1.15,2014-02-22 00:09:00,
2014-02-21 17:14:00,34.7,21.8,30.10,South,184,0.0,2.0,59,0.00,,,0.00,137,Wunderground v.1.15,2014-02-22 00:14:00,
2014-02-21 17:19:00,34.6,22.5,30.10,South,184,0.0,2.0,61,0.00,,,0.00,109,Wunderground v.1.15,2014-02-22 00:19:00,
2014-02-21 17:24:00,34.7,23.0,30.10,South,184,0.0,1.0,62,0.00,,,0.00,69,Wunderground v.1.15,2014-02-22 00:24:00,
2014-02-21 17:29:00,34.6,22.5,30.10,South,184,0.0,1.0,61,0.00,,,0.00,16,Wunderground v.1.15,2014-02-22 00:29:00,
2014-02-21 17:34:00,34.4,20.3,30.10,South,184,0.0,0.0,56,0.00,,,0.00,12,Wunderground v.1.15,2014-02-22 00:34:00,
2014-02-21 17:39:00,34.3,20.2,30.10,South,184,0.0,0.0,56,0.00,,,0.00,12,Wunderground v.1.15,2014-02-22 00:39:00,
2014-02-21 17:44:00,34.1,19.6,30.10,South,184,0.0,0.0,55,0.00,,,0.00,9,Wunderground v.1.15,2014-02-22 00:44:00,
2014-02-21 17:49:00,33.8,20.2,30.11,South,184,0.0,0.0,57,0.00,,,0.00,5,Wunderground v.1.15,2014-02-22 00:49:00,
2014-02-21 17:54:00,33.5,21.1,30.11,South,184,0.0,3.0,60,0.00,,,0.00,0,Wunderground v.1.15,2014-02-22 00:54:00,
2014-02-21 17:59:00,32.9,20.1,30.11,South,184,4.0,6.0,59,0.00,,,0.00,0,Wunderground v.1.15,2014-02-22 00:59:00,
2014-02-21 18:04:00,32.4,20.0,30.11,South,184,0.0,2.0,60,0.00,,,0.00,0,Wunderground v.1.15,2014-02-22 01:04:00,
2014-02-21 18:09:00,31.6,20.1,30.11,South,184,4.0,5.0,62,0.00,,,0.00,0,Wunderground v.1.15,2014-02-22 01:09:00,
2014-02-21 18:14:00,31.0,19.5,30.11,South,184,4.0,4.0,62,0.00,,,0.00,0,Wunderground v.1.15,2014-02-22 01:14:00,
2014-02-21 18:19:00,30.4,19.7,30.11,South,184,2.0,4.0,64,0.00,,,0.00,0,Wunderground v.1.15,2014-02-22 01:19:00,
2014-02-21 18:24:00,30.0,19.7,30.11,South,184,3.0,4.0,65,0.00,,,0.00,0,Wunderground v.1.15,2014-02-22 01:24:00,
2014-02-21 18:29:00,29.5,19.9,30.11,South,184,4.0,4.0,67,0.00,,,0.00,0,Wunderground v.1.15,2014-02-22 01:29:00,
2014-02-21 18:34:00,29.1,20.2,30.11,South,184,3.0,4.0,69,0.00,,,0.00,0,Wunderground v.1.15,2014-02-22 01:34:00,
2014-02-21 18:39:00,28.7,20.1,30.11,South,184,4.0,5.0,70,0.00,,,0.00,0,Wunderground v.1.15,2014-02-22 01:39:00,
2014-02-21 18:44:00,28.4,20.5,30.11,South,184,4.0,4.0,72,0.00,,,0.00,0,Wunderground v.1.15,2014-02-22 01:44:00,
2014-02-21 18:49:00,28.1,20.2,30.11,South,184,2.0,4.0,72,0.00,,,0.00,0,Wunderground v.1.15,2014-02-22 01:49:00,
2014-02-21 18:56:00,27.5,19.7,30.11,South,184,4.0,6.0,72,0.00,,,0.00,0,Wunderground v.1.15,2014-02-22 01:56:00,
2014-02-21 19:01:00,27.2,19.7,30.11,South,184,3.0,4.0,73,0.00,,,0.00,0,Wunderground v.1.15,2014-02-22 02:01:00,
2014-02-21 19:06:00,27.0,19.5,30.11,SSW,209,4.0,9.0,73,0.00,,,0.00,0,Wunderground v.1.15,2014-02-22 02:06:00,
2014-02-21 19:11:00,26.7,19.2,30.11,SSW,209,5.0,6.0,73,0.00,,,0.00,0,Wunderground v.1.15,2014-02-22 02:11:00,
2014-02-21 19:16:00,26.6,19.1,30.10,SSW,209,3.0,6.0,73,0.00,,,0.00,0,Wunderground v.1.15,2014-02-22 02:16:00,
2014-02-21 19:21:00,26.3,18.8,30.10,SSW,209,5.0,6.0,73,0.00,,,0.00,0,Wunderground v.1.15,2014-02-22 02:21:00,
2014-02-21 19:26:00,26.1,18.3,30.10,SSW,209,5.0,6.0,72,0.00,,,0.00,0,Wunderground v.1.15,2014-02-22 02:26:00,
2014-02-21 19:31:00,26.0,18.2,30.11,SSW,209,6.0,6.0,72,0.00,,,0.00,0,Wunderground v.1.15,2014-02-22 02:31:00,
2014-02-21 19:36:00,25.8,18.0,30.11,SSW,209,4.0,6.0,72,0.00,,,0.00,0,Wunderground v.1.15,2014-02-22 02:36:00,
2014-02-21 19:41:00,25.7,17.9,30.11,SSW,209,4.0,6.0,72,0.00,,,0.00,0,Wunderground v.1.15,2014-02-22 02:41:00,
2014-02-21 19:46:00,25.6,17.8,30.10,SSW,209,4.0,6.0,72,0.00,,,0.00,0,Wunderground v.1.15,2014-02-22 02:46:00,
2014-02-21 19:51:00,25.4,17.6,30.10,SSW,209,5.0,5.0,72,0.00,,,0.00,0,Wunderground v.1.15,2014-02-22 02:51:00,
2014-02-21 19:56:00,25.3,17.9,30.10,SSW,209,4.0,5.0,73,0.00,,,0.00,0,Wunderground v.1.15,2014-02-22 02:56:00,
2014-02-21 20:01:00,25.3,18.2,30.10,SSW,209,5.0,6.0,74,0.00,,,0.00,0,Wunderground v.1.15,2014-02-22 03:01:00,
2014-02-21 20:06:00,25.1,18.0,30.10,SSW,209,6.0,7.0,74,0.00,,,0.00,0,Wunderground v.1.15,2014-02-22 03:06:00,
2014-02-21 20:11:00,25.0,18.2,30.10,SSW,209,6.0,7.0,75,0.00,,,0.00,0,Wunderground v.1.15,2014-02-22 03:11:00,
2014-02-21 20:17:00,25.0,18.2,30.10,SSW,209,7.0,7.0,75,0.00,,,0.00,0,Wunderground v.1.15,2014-02-22 03:17:00,
2014-02-21 20:25:00,24.8,18.0,30.10,SSW,209,6.0,6.0,75,0.00,,,0.00,0,Wunderground v.1.15,2014-02-22 03:25:00,
2014-02-21 20:30:00,24.8,18.0,30.10,SSW,209,4.0,6.0,75,0.00,,,0.00,0,Wunderground v.1.15,2014-02-22 03:30:00,
2014-02-21 20:36:00,24.7,17.9,30.10,SSW,209,6.0,6.0,75,0.00,,,0.00,0,Wunderground v.1.15,2014-02-22 03:36:00,
2014-02-21 20:41:00,24.7,18.2,30.10,SSW,209,5.0,6.0,76,0.00,,,0.00,0,Wunderground v.1.15,2014-02-22 03:41:00,
2014-02-21 20:46:00,24.7,18.2,30.10,SSW,209,3.0,6.0,76,0.00,,,0.00,0,Wunderground v.1.15,2014-02-22 03:46:00,
2014-02-21 20:51:00,24.7,18.2,30.10,SSW,209,4.0,5.0,76,0.00,,,0.00,0,Wunderground v.1.15,2014-02-22 03:51:00,
2014-02-21 20:56:00,24.5,18.0,30.10,SW,219,5.0,6.0,76,0.00,,,0.00,0,Wunderground v.1.15,2014-02-22 03:56:00,
2014-02-21 21:01:00,24.4,17.6,30.11,SW,219,5.0,6.0,75,0.00,,,0.00,0,Wunderground v.1.15,2014-02-22 04:01:00,
2014-02-21 21:06:00,24.1,17.3,30.11,SW,219,3.0,6.0,75,0.00,,,0.00,0,Wunderground v.1.15,2014-02-22 04:06:00,
2014-02-21 21:11:00,23.8,16.7,30.11,SW,219,4.0,4.0,74,0.00,,,0.00,0,Wunderground v.1.15,2014-02-22 04:11:00,
2014-02-21 21:16:00,23.5,16.4,30.11,SW,219,2.0,5.0,74,0.00,,,0.00,0,Wunderground v.1.15,2014-02-22 04:16:00,
2014-02-21 21:23:00,23.0,15.9,30.11,SW,219,4.0,4.0,74,0.00,,,0.00,0,Wunderground v.1.15,2014-02-22 04:23:00,
2014-02-21 21:28:00,22.7,16.0,30.11,SW,219,4.0,4.0,75,0.00,,,0.00,0,Wunderground v.1.15,2014-02-22 04:28:00,
2014-02-21 21:33:00,22.4,16.0,30.11,SW,219,5.0,5.0,76,0.00,,,0.00,0,Wunderground v.1.15,2014-02-22 04:33:00,
2014-02-21 21:38:00,22.2,15.8,30.11,SW,221,5.0,6.0,76,0.00,,,0.00,0,Wunderground v.1.15,2014-02-22 04:38:00,
2014-02-21 21:43:00,22.1,16.0,30.11,SW,223,5.0,6.0,77,0.00,,,0.00,0,Wunderground v.1.15,2014-02-22 04:43:00,
2014-02-21 21:49:00,21.9,15.8,30.11,SW,223,6.0,7.0,77,0.00,,,0.00,0,Wunderground v.1.15,2014-02-22 04:49:00,
2014-02-21 21:54:00,21.8,15.7,30.11,SW,224,6.0,7.0,77,0.00,,,0.00,0,Wunderground v.1.15,2014-02-22 04:54:00,
2014-02-21 22:00:00,21.6,15.2,30.11,SW,227,7.0,7.0,76,0.00,,,0.00,0,Wunderground v.1.15,2014-02-22 05:00:00,
2014-02-21 22:01:00,21.6,15.2,30.11,SW,228,7.0,8.0,76,0.00,,,0.00,0,Wunderground v.1.15,2014-02-22 05:01:00,
2014-02-21 22:02:00,21.6,15.2,30.11,SW,228,6.0,8.0,76,0.00,,,0.00,0,Wunderground v.1.15,2014-02-22 05:02:00,
2014-02-21 22:10:00,21.3,14.9,30.11,SW,232,8.0,8.0,76,0.00,,,0.00,0,Wunderground v.1.15,2014-02-22 05:10:00,
2014-02-21 22:18:00,21.1,14.4,30.10,WSW,240,8.0,8.0,75,0.00,,,0.00,0,Wunderground v.1.15,2014-02-22 05:18:00,
2014-02-21 22:26:00,20.8,13.8,30.10,WSW,242,8.0,8.0,74,0.00,,,0.00,0,Wunderground v.1.15,2014-02-22 05:26:00,
2014-02-21 22:31:00,20.6,13.3,30.11,WSW,253,9.0,9.0,73,0.00,,,0.00,0,Wunderground v.1.15,2014-02-22 05:31:00,
2014-02-21 22:40:00,20.5,12.3,30.11,WNW,285,10.0,10.0,70,0.00,,,0.00,0,Wunderground v.1.15,2014-02-22 05:40:00,
2014-02-21 22:47:00,20.5,10.9,30.11,WNW,294,11.0,11.0,66,0.00,,,0.00,0,Wunderground v.1.15,2014-02-22 05:47:00,
2014-02-21 22:57:00,20.8,11.2,30.11,WNW,293,11.0,12.0,66,0.00,,,0.00,0,Wunderground v.1.15,2014-02-22 05:57:00,
2014-02-21 23:08:00,21.1,11.2,30.10,WNW,292,12.0,12.0,65,0.00,,,0.00,0,Wunderground v.1.15,2014-02-22 06:08:00,
2014-02-21 23:18:00,21.4,11.1,30.09,WNW,294,12.0,13.0,64,0.00,,,0.00,0,Wunderground v.1.15,2014-02-22 06:18:00,
2014-02-21 23:27:00,21.9,10.5,30.09,WNW,292,12.0,13.0,61,0.00,,,0.00,0,Wunderground v.1.15,2014-02-22 06:27:00,
2014-02-21 23:37:00,22.4,10.6,30.09,WNW,294,13.0,13.0,60,0.00,,,0.00,0,Wunderground v.1.15,2014-02-22 06:37:00,
2014-02-21 23:47:00,22.7,10.5,30.09,WNW,295,13.0,14.0,59,0.00,,,0.00,0,Wunderground v.1.15,2014-02-22 06:47:00,
2014-02-21 23:53:00,22.9,9.5,30.09,WNW,296,12.0,14.0,56,0.00,,,0.00,0,Wunderground v.1.15,2014-02-22 06:53:00,
2014-02-21 23:58:00,23.2,10.2,30.09,WNW,297,12.0,14.0,57,0.00,,,0.00,0,Wunderground v.1.15,2014-02-22 06:58:00,